UAL22 KATL-KFLL

Flight info

Callsign UAL22
Flight time 1h 26m
Altitude 39000
Route SMLTZ3 WALET ZPLEN TEEKY4
Aircraft B77W/H-SDE1E2E3FGHIJ2J3J4J5M1RWXY/LB1D1

Departure

Time 2026-05-03 22:15
Airport Hartsfield Jackson Atlanta International Airport (KATL)

Arrival

Time 2026-05-03 23:42
Airport Fort Lauderdale Hollywood International Airport (KFLL)
Time Latitude Longitude Altitude Speed Heading
2026-05-03 21:21 33.64187 -84.42646 1011 ft 0 kts 90°
2026-05-03 22:00 33.64187 -84.42659 1011 ft 4 kts 90°
2026-05-03 22:00 33.64188 -84.42692 1011 ft 4 kts 90°
2026-05-03 22:01 33.64187 -84.42721 1011 ft 4 kts 100°
2026-05-03 22:01 33.64196 -84.42739 1011 ft 4 kts 182°
2026-05-03 22:01 33.64222 -84.42734 1011 ft 4 kts 186°
2026-05-03 22:01 33.64235 -84.42733 1011 ft 1 kts 179°
2026-05-03 22:02 33.64236 -84.42733 1011 ft 0 kts 179°
2026-05-03 22:06 33.64234 -84.42733 1011 ft 1 kts 179°
2026-05-03 22:06 33.64227 -84.42733 1011 ft 0 kts 180°
2026-05-03 22:07 33.64204 -84.42733 1011 ft 9 kts 180°
2026-05-03 22:07 33.64166 -84.42733 1011 ft 0 kts 180°
2026-05-03 22:07 33.64165 -84.42733 1011 ft 0 kts 180°
2026-05-03 22:07 33.64159 -84.42733 1011 ft 1 kts 180°
2026-05-03 22:08 33.64147 -84.42733 1011 ft 2 kts 180°
2026-05-03 22:08 33.64127 -84.42733 1011 ft 3 kts 180°
2026-05-03 22:08 33.64094 -84.42733 1011 ft 7 kts 178°
2026-05-03 22:08 33.64033 -84.42732 1011 ft 10 kts 180°
2026-05-03 22:09 33.64024 -84.42733 1011 ft 1 kts 182°
2026-05-03 22:09 33.64011 -84.42736 1011 ft 4 kts 190°
2026-05-03 22:09 33.63959 -84.42748 1011 ft 13 kts 190°
2026-05-03 22:10 33.63674 -84.42710 1011 ft 23 kts 138°
2026-05-03 22:10 33.63656 -84.42555 1012 ft 15 kts 90°
2026-05-03 22:10 33.63655 -84.42430 1011 ft 15 kts 90°
2026-05-03 22:10 33.63655 -84.42305 1012 ft 15 kts 90°
2026-05-03 22:11 33.63655 -84.42180 1012 ft 15 kts 90°
2026-05-03 22:11 33.63655 -84.42055 1012 ft 15 kts 90°
2026-05-03 22:11 33.63655 -84.41931 1011 ft 15 kts 90°
2026-05-03 22:11 33.63655 -84.41806 1011 ft 15 kts 90°
2026-05-03 22:12 33.63655 -84.41681 1011 ft 15 kts 90°
2026-05-03 22:12 33.63654 -84.41557 1011 ft 15 kts 90°
2026-05-03 22:12 33.63655 -84.41433 1011 ft 15 kts 90°
2026-05-03 22:12 33.63655 -84.41308 1011 ft 15 kts 90°
2026-05-03 22:13 33.63655 -84.41183 1011 ft 15 kts 90°
2026-05-03 22:13 33.63654 -84.41051 1011 ft 17 kts 90°
2026-05-03 22:13 33.63655 -84.40907 1011 ft 18 kts 89°
2026-05-03 22:13 33.63635 -84.40766 1012 ft 18 kts 136°
2026-05-03 22:14 33.63590 -84.40747 1012 ft 0 kts 173°
2026-05-03 22:14 33.63577 -84.40746 1012 ft 5 kts 177°
2026-05-03 22:14 33.63510 -84.40751 1012 ft 14 kts 201°
2026-05-03 22:14 33.63473 -84.40858 1012 ft 15 kts 266°
2026-05-03 22:15 33.63472 -84.40937 1012 ft 30 kts 269°
2026-05-03 22:15 33.63473 -84.41723 1010 ft 157 kts 269°
2026-05-03 22:15 33.63455 -84.43417 1442 ft 224 kts 270°
2026-05-03 22:15 33.63459 -84.45312 2289 ft 229 kts 271°
2026-05-03 22:16 33.63463 -84.47244 3212 ft 237 kts 271°
2026-05-03 22:16 33.63458 -84.49251 4000 ft 247 kts 271°
2026-05-03 22:16 33.63454 -84.51337 5004 ft 253 kts 271°
2026-05-03 22:16 33.63451 -84.53489 5898 ft 259 kts 271°
2026-05-03 22:17 33.63452 -84.55665 6852 ft 264 kts 271°
2026-05-03 22:17 33.63453 -84.57878 7808 ft 267 kts 271°
2026-05-03 22:17 33.63454 -84.60123 8748 ft 271 kts 271°
2026-05-03 22:17 33.63454 -84.62406 9703 ft 275 kts 271°
2026-05-03 22:18 33.63184 -84.64677 10437 ft 284 kts 250°
2026-05-03 22:18 33.62038 -84.66686 10736 ft 316 kts 224°
2026-05-03 22:18 33.60123 -84.68187 10932 ft 343 kts 212°
2026-05-03 22:18 33.57884 -84.69401 11109 ft 367 kts 195°
2026-05-03 22:19 33.55284 -84.69448 11780 ft 380 kts 173°
2026-05-03 22:19 33.52659 -84.68870 12472 ft 388 kts 172°
2026-05-03 22:19 33.49976 -84.68312 13387 ft 393 kts 173°
2026-05-03 22:19 33.47259 -84.67784 14006 ft 396 kts 173°
2026-05-03 22:20 33.44523 -84.67265 14009 ft 396 kts 172°
2026-05-03 22:20 33.41925 -84.66263 14341 ft 405 kts 154°
2026-05-03 22:20 33.39656 -84.64243 15231 ft 407 kts 138°
2026-05-03 22:20 33.37626 -84.61819 15938 ft 415 kts 136°
2026-05-03 22:21 33.35578 -84.59341 16756 ft 421 kts 136°
2026-05-03 22:21 33.33511 -84.56845 17651 ft 424 kts 137°
2026-05-03 22:21 33.31415 -84.54331 18529 ft 429 kts 137°
2026-05-03 22:21 33.29286 -84.51797 19263 ft 434 kts 137°
2026-05-03 22:22 33.27130 -84.49244 20014 ft 439 kts 137°
2026-05-03 22:22 33.24946 -84.46669 20783 ft 443 kts 138°
2026-05-03 22:22 33.22758 -84.44093 21544 ft 448 kts 138°
2026-05-03 22:22 33.20517 -84.41460 22298 ft 453 kts 138°
2026-05-03 22:23 33.18258 -84.38807 23042 ft 458 kts 138°
2026-05-03 22:23 33.15969 -84.36121 23780 ft 463 kts 138°
2026-05-03 22:23 33.13660 -84.33412 24372 ft 467 kts 138°
2026-05-03 22:23 33.11320 -84.30669 24972 ft 472 kts 139°
2026-05-03 22:24 33.08972 -84.27918 25555 ft 477 kts 139°
2026-05-03 22:24 33.06591 -84.25130 26111 ft 482 kts 139°
2026-05-03 22:24 33.04185 -84.22316 26678 ft 486 kts 140°
2026-05-03 22:24 33.02584 -84.20446 27075 ft 489 kts 140°
2026-05-03 22:25 33.00078 -84.17719 27564 ft 487 kts 148°
2026-05-03 22:25 32.96128 -84.15399 28177 ft 473 kts 168°
2026-05-03 22:25 32.92961 -84.14237 28631 ft 479 kts 168°
2026-05-03 22:25 32.90808 -84.13427 28999 ft 482 kts 168°
2026-05-03 22:26 32.87613 -84.12185 29533 ft 485 kts 168°
2026-05-03 22:26 32.84408 -84.10901 30086 ft 488 kts 167°
2026-05-03 22:26 32.81189 -84.09585 30557 ft 489 kts 167°
2026-05-03 22:26 32.77974 -84.08258 31116 ft 488 kts 167°
2026-05-03 22:27 32.74825 -84.06954 31706 ft 484 kts 168°
2026-05-03 22:27 32.71620 -84.05626 32447 ft 479 kts 169°
2026-05-03 22:27 32.68528 -84.04350 33115 ft 474 kts 169°
2026-05-03 22:27 32.65409 -84.03068 33707 ft 472 kts 169°
2026-05-03 22:28 32.62306 -84.01797 34242 ft 470 kts 170°
2026-05-03 22:28 32.59203 -84.00528 34678 ft 470 kts 170°
2026-05-03 22:28 32.56112 -83.99266 35067 ft 470 kts 170°
2026-05-03 22:28 32.53016 -83.98002 35447 ft 470 kts 170°
2026-05-03 22:29 32.49919 -83.96737 35834 ft 470 kts 170°
2026-05-03 22:29 32.46828 -83.95474 36186 ft 470 kts 171°
2026-05-03 22:29 32.43775 -83.94226 36598 ft 469 kts 171°
2026-05-03 22:29 32.40686 -83.92965 36969 ft 469 kts 171°
2026-05-03 22:30 32.37604 -83.91710 37307 ft 469 kts 171°
2026-05-03 22:30 32.34515 -83.90481 37662 ft 466 kts 173°
2026-05-03 22:30 32.31420 -83.89345 38048 ft 463 kts 174°
2026-05-03 22:30 32.28331 -83.88258 38410 ft 462 kts 174°
2026-05-03 22:31 32.25245 -83.87187 38727 ft 463 kts 174°
2026-05-03 22:31 32.22154 -83.86111 38980 ft 463 kts 174°
2026-05-03 22:31 32.19051 -83.85024 39001 ft 468 kts 174°
2026-05-03 22:32 32.12850 -83.82824 39093 ft 467 kts 174°
2026-05-03 22:32 32.06676 -83.80615 39112 ft 461 kts 174°
2026-05-03 22:33 32.00539 -83.78430 39132 ft 459 kts 174°
2026-05-03 22:33 31.94411 -83.76257 39136 ft 459 kts 174°
2026-05-03 22:34 31.88321 -83.74099 39115 ft 459 kts 175°
2026-05-03 22:34 31.82202 -83.71932 39117 ft 459 kts 175°
2026-05-03 22:35 31.76073 -83.69764 39129 ft 460 kts 175°
2026-05-03 22:35 31.69937 -83.67597 39125 ft 461 kts 175°
2026-05-03 22:36 31.63793 -83.65324 39086 ft 464 kts 173°
2026-05-03 22:36 31.57700 -83.62949 39118 ft 464 kts 173°
2026-05-03 22:37 31.51575 -83.60571 39126 ft 463 kts 174°
2026-05-03 22:37 31.45450 -83.58215 39125 ft 462 kts 174°
2026-05-03 22:38 31.39339 -83.55876 39129 ft 461 kts 174°
2026-05-03 22:38 31.33236 -83.53543 39115 ft 460 kts 174°
2026-05-03 22:39 31.27155 -83.51220 39119 ft 459 kts 174°
2026-05-03 22:39 31.21126 -83.48922 39124 ft 458 kts 174°
2026-05-03 22:40 31.15057 -83.46611 39121 ft 458 kts 174°
2026-05-03 22:40 31.09000 -83.44307 39121 ft 457 kts 174°
2026-05-03 22:41 31.02962 -83.42012 39108 ft 456 kts 175°
2026-05-03 22:41 30.96914 -83.39718 39113 ft 456 kts 175°
2026-05-03 22:42 30.90879 -83.37432 39118 ft 456 kts 175°
2026-05-03 22:42 30.84879 -83.35162 39124 ft 456 kts 175°
2026-05-03 22:43 30.78828 -83.32874 39146 ft 456 kts 175°
2026-05-03 22:43 30.72773 -83.30589 39115 ft 457 kts 175°
2026-05-03 22:44 30.66794 -83.27950 39125 ft 469 kts 168°
2026-05-03 22:44 30.60866 -83.24657 39128 ft 474 kts 167°
2026-05-03 22:45 30.54928 -83.21310 39131 ft 474 kts 167°
2026-05-03 22:45 30.48965 -83.18047 39132 ft 473 kts 168°
2026-05-03 22:46 30.42998 -83.14841 39112 ft 472 kts 168°
2026-05-03 22:46 30.37038 -83.11651 39123 ft 471 kts 168°
2026-05-03 22:47 30.31092 -83.08473 39119 ft 469 kts 168°
2026-05-03 22:47 30.25167 -83.05307 39121 ft 468 kts 168°
2026-05-03 22:48 30.19294 -83.02172 39087 ft 467 kts 169°
2026-05-03 22:48 30.13400 -82.99030 39111 ft 466 kts 169°
2026-05-03 22:49 30.07499 -82.95890 39117 ft 466 kts 169°
2026-05-03 22:49 30.01597 -82.92754 39116 ft 467 kts 169°
2026-05-03 22:50 29.95734 -82.89642 39100 ft 467 kts 169°
2026-05-03 22:50 29.89815 -82.86502 39068 ft 467 kts 169°
2026-05-03 22:51 29.83917 -82.83378 39094 ft 467 kts 169°
2026-05-03 22:51 29.78007 -82.80254 39099 ft 467 kts 169°
2026-05-03 22:52 29.72096 -82.77132 39083 ft 467 kts 169°
2026-05-03 22:52 29.66200 -82.74019 39091 ft 466 kts 169°
2026-05-03 22:53 29.60313 -82.70917 39069 ft 464 kts 169°
2026-05-03 22:53 29.54485 -82.67850 39088 ft 463 kts 169°
2026-05-03 22:54 29.48635 -82.64777 39095 ft 462 kts 169°
2026-05-03 22:54 29.42786 -82.61708 39094 ft 462 kts 169°
2026-05-03 22:55 29.36944 -82.58646 39089 ft 462 kts 169°
2026-05-03 22:55 29.31098 -82.55584 39042 ft 461 kts 170°
2026-05-03 22:56 29.25240 -82.52834 39082 ft 438 kts 182°
2026-05-03 22:56 29.22315 -82.52552 39096 ft 411 kts 195°
2026-05-03 22:56 29.19439 -82.52651 39099 ft 418 kts 194°
2026-05-03 22:57 29.13552 -82.52733 39091 ft 426 kts 193°
2026-05-03 22:57 29.07648 -82.52733 39073 ft 426 kts 193°
2026-05-03 22:58 29.01720 -82.52718 39038 ft 425 kts 193°
2026-05-03 22:58 28.95795 -82.52709 39061 ft 424 kts 193°
2026-05-03 22:59 28.89890 -82.52705 39064 ft 424 kts 193°
2026-05-03 22:59 28.83993 -82.52703 39063 ft 423 kts 193°
2026-05-03 23:00 28.78140 -82.52700 39079 ft 423 kts 193°
2026-05-03 23:00 28.72237 -82.52697 39048 ft 423 kts 193°
2026-05-03 23:01 28.66350 -82.52694 39071 ft 423 kts 193°
2026-05-03 23:01 28.60459 -82.52693 39079 ft 424 kts 193°
2026-05-03 23:02 28.54538 -82.52691 39073 ft 425 kts 193°
2026-05-03 23:02 28.48632 -82.52688 39069 ft 427 kts 193°
2026-05-03 23:03 28.42683 -82.52684 39032 ft 427 kts 193°
2026-05-03 23:03 28.36737 -82.52680 39065 ft 427 kts 193°
2026-05-03 23:04 28.30819 -82.52678 39071 ft 428 kts 193°
2026-05-03 23:04 28.24845 -82.52675 39071 ft 429 kts 193°
2026-05-03 23:05 28.18843 -82.52672 39063 ft 430 kts 193°
2026-05-03 23:05 28.12891 -82.52668 39058 ft 430 kts 193°
2026-05-03 23:06 28.06885 -82.52664 39052 ft 430 kts 192°
2026-05-03 23:06 28.00882 -82.52642 39056 ft 434 kts 190°
2026-05-03 23:06 27.97822 -82.52116 39042 ft 457 kts 177°
2026-05-03 23:07 27.94774 -82.51010 39066 ft 462 kts 175°
2026-05-03 23:07 27.88664 -82.48722 39048 ft 463 kts 175°
2026-05-03 23:08 27.82576 -82.46505 39027 ft 462 kts 175°
2026-05-03 23:08 27.76441 -82.44324 39044 ft 463 kts 176°
2026-05-03 23:09 27.70283 -82.42150 39055 ft 464 kts 176°
2026-05-03 23:09 27.64110 -82.39970 39049 ft 465 kts 175°
2026-05-03 23:10 27.57969 -82.37802 39056 ft 465 kts 175°
2026-05-03 23:10 27.51780 -82.35618 39060 ft 465 kts 175°
2026-05-03 23:11 27.45589 -82.33436 39052 ft 465 kts 175°
2026-05-03 23:11 27.39405 -82.31260 39058 ft 465 kts 175°
2026-05-03 23:11 27.36368 -82.30025 39041 ft 478 kts 167°
2026-05-03 23:12 27.33391 -82.28279 39063 ft 487 kts 163°
2026-05-03 23:12 27.27538 -82.24366 38894 ft 492 kts 161°
2026-05-03 23:12 27.24560 -82.22375 38197 ft 495 kts 161°
2026-05-03 23:13 27.21625 -82.20445 37556 ft 481 kts 162°
2026-05-03 23:13 27.18764 -82.18590 36880 ft 468 kts 162°
2026-05-03 23:13 27.16004 -82.16829 36194 ft 457 kts 163°
2026-05-03 23:13 27.13245 -82.15090 35522 ft 456 kts 163°
2026-05-03 23:14 27.10435 -82.13340 34722 ft 468 kts 163°
2026-05-03 23:14 27.07537 -82.11536 33849 ft 483 kts 162°
2026-05-03 23:14 27.04572 -82.09669 32843 ft 492 kts 161°
2026-05-03 23:14 27.02605 -82.08417 32411 ft 490 kts 160°
2026-05-03 23:15 26.99646 -82.06531 31787 ft 486 kts 160°
2026-05-03 23:15 26.96724 -82.04653 31179 ft 485 kts 158°
2026-05-03 23:15 26.94022 -82.02296 30567 ft 499 kts 143°
2026-05-03 23:15 26.91638 -81.99439 30034 ft 505 kts 139°
2026-05-03 23:16 26.89307 -81.96480 29370 ft 506 kts 139°
2026-05-03 23:16 26.86977 -81.93548 28766 ft 500 kts 140°
2026-05-03 23:16 26.84638 -81.90693 28206 ft 494 kts 141°
2026-05-03 23:16 26.82293 -81.87908 27624 ft 487 kts 141°
2026-05-03 23:17 26.79970 -81.85182 27083 ft 482 kts 141°
2026-05-03 23:17 26.77695 -81.82512 26547 ft 477 kts 141°
2026-05-03 23:17 26.75420 -81.79846 26121 ft 470 kts 141°
2026-05-03 23:17 26.73169 -81.77223 25555 ft 462 kts 142°
2026-05-03 23:18 26.71000 -81.74695 24964 ft 442 kts 142°
2026-05-03 23:18 26.68891 -81.72246 24466 ft 434 kts 142°
2026-05-03 23:18 26.66798 -81.69827 23968 ft 433 kts 142°
2026-05-03 23:18 26.64708 -81.67406 23445 ft 432 kts 142°
2026-05-03 23:19 26.62639 -81.64975 22884 ft 432 kts 139°
2026-05-03 23:19 26.60729 -81.62370 22356 ft 432 kts 134°
2026-05-03 23:19 26.58948 -81.59671 21872 ft 430 kts 132°
2026-05-03 23:19 26.57207 -81.56960 21383 ft 428 kts 132°
2026-05-03 23:20 26.55471 -81.54276 20903 ft 424 kts 133°
2026-05-03 23:20 26.53731 -81.51630 20428 ft 422 kts 133°
2026-05-03 23:20 26.52005 -81.49041 19952 ft 419 kts 133°
2026-05-03 23:20 26.50263 -81.46450 19478 ft 417 kts 133°
2026-05-03 23:21 26.48521 -81.43870 18995 ft 415 kts 133°
2026-05-03 23:21 26.46816 -81.41341 18505 ft 400 kts 133°
2026-05-03 23:21 26.45144 -81.38867 18045 ft 399 kts 133°
2026-05-03 23:21 26.43477 -81.36403 17536 ft 397 kts 133°
2026-05-03 23:22 26.40148 -81.31534 16614 ft 390 kts 134°
2026-05-03 23:22 26.38422 -81.29215 16159 ft 387 kts 136°
2026-05-03 23:22 26.36681 -81.26931 15722 ft 384 kts 136°
2026-05-03 23:23 26.34948 -81.24656 15289 ft 383 kts 135°
2026-05-03 23:23 26.33236 -81.22388 14843 ft 381 kts 135°
2026-05-03 23:23 26.31562 -81.20157 14409 ft 379 kts 135°
2026-05-03 23:23 26.29875 -81.17904 13984 ft 377 kts 134°
2026-05-03 23:24 26.28196 -81.15666 13490 ft 375 kts 134°
2026-05-03 23:24 26.26519 -81.13453 13052 ft 372 kts 134°
2026-05-03 23:24 26.24852 -81.11261 12631 ft 370 kts 134°
2026-05-03 23:24 26.23189 -81.09077 12183 ft 367 kts 134°
2026-05-03 23:25 26.21542 -81.06913 11766 ft 364 kts 134°
2026-05-03 23:25 26.19910 -81.04767 11351 ft 361 kts 134°
2026-05-03 23:25 26.18326 -81.02684 11052 ft 345 kts 134°
2026-05-03 23:25 26.16847 -81.00732 11011 ft 317 kts 134°
2026-05-03 23:26 26.15450 -80.98885 11002 ft 310 kts 132°
2026-05-03 23:26 26.14422 -80.96753 10913 ft 317 kts 107°
2026-05-03 23:26 26.14009 -80.94359 10456 ft 314 kts 101°
2026-05-03 23:26 26.13658 -80.91968 9838 ft 308 kts 101°
2026-05-03 23:27 26.13307 -80.89647 9263 ft 298 kts 102°
2026-05-03 23:27 26.12967 -80.87478 9201 ft 269 kts 102°
2026-05-03 23:27 26.12639 -80.85459 9192 ft 268 kts 102°
2026-05-03 23:27 26.12296 -80.83394 9356 ft 279 kts 102°
2026-05-03 23:28 26.11938 -80.81249 9480 ft 283 kts 102°
2026-05-03 23:28 26.11579 -80.79089 9586 ft 283 kts 102°
2026-05-03 23:28 26.11448 -80.76910 9619 ft 285 kts 81°
2026-05-03 23:28 26.12145 -80.74864 9534 ft 286 kts 52°
2026-05-03 23:29 26.13577 -80.73390 9457 ft 279 kts 23°
2026-05-03 23:29 26.15389 -80.72798 9364 ft 267 kts 359°
2026-05-03 23:29 26.17222 -80.72731 9283 ft 262 kts 354°
2026-05-03 23:29 26.19029 -80.72755 9259 ft 256 kts 353°
2026-05-03 23:30 26.20788 -80.72744 9175 ft 259 kts
2026-05-03 23:30 26.22505 -80.72015 9095 ft 272 kts 32°
2026-05-03 23:30 26.23761 -80.70413 9044 ft 280 kts 62°
2026-05-03 23:30 26.24227 -80.68325 9027 ft 280 kts 91°
2026-05-03 23:31 26.23796 -80.66249 9036 ft 275 kts 120°
2026-05-03 23:31 26.22585 -80.64651 9012 ft 268 kts 149°
2026-05-03 23:31 26.20927 -80.63830 9014 ft 258 kts 169°
2026-05-03 23:31 26.19202 -80.63340 8788 ft 262 kts 172°
2026-05-03 23:32 26.17437 -80.62893 8245 ft 256 kts 173°
2026-05-03 23:32 26.15706 -80.62462 7578 ft 254 kts 173°
2026-05-03 23:32 26.13974 -80.62038 6875 ft 254 kts 172°
2026-05-03 23:32 26.12253 -80.61629 6164 ft 253 kts 172°
2026-05-03 23:33 26.10537 -80.61240 5526 ft 248 kts 172°
2026-05-03 23:33 26.08918 -80.60796 5244 ft 234 kts 159°
2026-05-03 23:33 26.07647 -80.59603 5077 ft 247 kts 124°
2026-05-03 23:33 26.07103 -80.57824 5034 ft 243 kts 98°
2026-05-03 23:34 26.06927 -80.55952 5029 ft 242 kts 94°
2026-05-03 23:34 26.06849 -80.54118 5015 ft 231 kts 91°
2026-05-03 23:34 26.06821 -80.52381 4995 ft 217 kts 91°
2026-05-03 23:34 26.06807 -80.50754 4863 ft 211 kts 91°
2026-05-03 23:35 26.06797 -80.49120 4433 ft 211 kts 91°
2026-05-03 23:35 26.06787 -80.47515 4118 ft 205 kts 91°
2026-05-03 23:35 26.06778 -80.45914 4025 ft 207 kts 91°
2026-05-03 23:35 26.06768 -80.44324 3926 ft 205 kts 91°
2026-05-03 23:36 26.06759 -80.42740 3730 ft 203 kts 91°
2026-05-03 23:36 26.06749 -80.41218 3484 ft 186 kts 91°
2026-05-03 23:36 26.06740 -80.39799 3217 ft 192 kts 90°
2026-05-03 23:36 26.06731 -80.38327 2920 ft 192 kts 90°
2026-05-03 23:37 26.06721 -80.36845 2551 ft 189 kts 90°
2026-05-03 23:37 26.06712 -80.35416 2449 ft 179 kts 90°
2026-05-03 23:37 26.06704 -80.34057 2441 ft 173 kts 90°
2026-05-03 23:37 26.06696 -80.32729 2284 ft 172 kts 90°
2026-05-03 23:38 26.06687 -80.31369 2026 ft 178 kts 89°
2026-05-03 23:38 26.06678 -80.30092 1981 ft 155 kts 89°
2026-05-03 23:38 26.06671 -80.28949 1994 ft 144 kts 89°
2026-05-03 23:38 26.06665 -80.27824 2009 ft 146 kts 90°
2026-05-03 23:39 26.06658 -80.26683 1865 ft 149 kts 89°
2026-05-03 23:39 26.06650 -80.25566 1663 ft 144 kts 89°
2026-05-03 23:39 26.06644 -80.24475 1536 ft 140 kts 89°
2026-05-03 23:39 26.06640 -80.23357 1384 ft 149 kts 89°
2026-05-03 23:40 26.06627 -80.22170 1170 ft 154 kts 89°
2026-05-03 23:40 26.06605 -80.21007 901 ft 147 kts 89°
2026-05-03 23:40 26.06596 -80.19884 702 ft 142 kts 88°
2026-05-03 23:40 26.06592 -80.18806 578 ft 138 kts 88°
2026-05-03 23:41 26.06604 -80.17730 427 ft 140 kts 86°
2026-05-03 23:41 26.06592 -80.16657 179 ft 133 kts 88°
2026-05-03 23:41 26.06586 -80.15644 45 ft 134 kts 87°
2026-05-03 23:41 26.06584 -80.14690 28 ft 106 kts 90°
2026-05-03 23:42 26.06581 -80.14106 26 ft 49 kts 89°
2026-05-03 23:42 26.06599 -80.13840 26 ft 40 kts 67°
2026-05-03 23:42 26.06698 -80.13729 31 ft 15 kts
2026-05-03 23:42 26.06738 -80.13783 30 ft 9 kts 280°
2026-05-03 23:43 26.06739 -80.13797 30 ft 1 kts 276°
2026-05-03 23:43 26.06741 -80.13811 30 ft 3 kts 277°
2026-05-03 23:43 26.06743 -80.13838 30 ft 4 kts 271°
2026-05-03 23:43 26.06743 -80.13879 30 ft 6 kts 270°
2026-05-03 23:44 26.06743 -80.13927 30 ft 7 kts 270°
2026-05-03 23:44 26.06743 -80.13945 30 ft 0 kts 268°
2026-05-03 23:45 26.06741 -80.13967 30 ft 5 kts 262°
2026-05-03 23:45 26.06731 -80.14013 28 ft 1 kts 251°
2026-05-03 23:45 26.06721 -80.14036 27 ft 6 kts 243°
2026-05-03 23:45 26.06700 -80.14089 30 ft 9 kts 251°
2026-05-03 23:46 26.06688 -80.14168 28 ft 11 kts 265°
2026-05-03 23:46 26.06689 -80.14262 27 ft 13 kts 271°
2026-05-03 23:46 26.06690 -80.14303 27 ft 1 kts 271°
2026-05-03 23:46 26.06690 -80.14316 27 ft 3 kts 270°
2026-05-03 23:47 26.06690 -80.14344 26 ft 5 kts 270°
2026-05-03 23:47 26.06690 -80.14365 26 ft 0 kts 270°
2026-05-03 23:47 26.06690 -80.14370 26 ft 2 kts 270°
2026-05-03 23:47 26.06690 -80.14377 26 ft 1 kts 270°
2026-05-03 23:48 26.06690 -80.14403 26 ft 6 kts 269°
2026-05-03 23:48 26.06691 -80.14453 25 ft 7 kts 271°
2026-05-03 23:48 26.06692 -80.14516 22 ft 9 kts 271°
2026-05-03 23:48 26.06692 -80.14592 22 ft 10 kts 269°
2026-05-03 23:49 26.06691 -80.14671 26 ft 10 kts 269°
2026-05-03 23:49 26.06693 -80.14752 24 ft 10 kts 271°
2026-05-03 23:49 26.06694 -80.14832 25 ft 10 kts 271°
2026-05-03 23:49 26.06695 -80.14913 27 ft 10 kts 267°
2026-05-03 23:50 26.06694 -80.15001 27 ft 13 kts 269°
2026-05-03 23:50 26.06693 -80.15068 28 ft 13 kts 269°
2026-05-03 23:50 26.06759 -80.15129 28 ft 12 kts
2026-05-03 23:50 26.06841 -80.15135 28 ft 12 kts 360°
2026-05-03 23:51 26.06904 -80.15090 28 ft 12 kts 75°
2026-05-03 23:51 26.06912 -80.14990 27 ft 14 kts 89°
2026-05-03 23:51 26.06911 -80.14874 25 ft 16 kts 91°
2026-05-03 23:51 26.06938 -80.14772 26 ft 14 kts 73°
2026-05-03 23:52 26.06898 -80.14676 25 ft 6 kts 133°
2026-05-03 23:52 26.06896 -80.14674 25 ft 1 kts 133°
2026-05-03 23:52 26.06882 -80.14658 26 ft 5 kts 134°
2026-05-03 23:52 26.06846 -80.14619 25 ft 10 kts 135°
2026-05-03 23:53 26.06782 -80.14552 21 ft 15 kts 134°
2026-05-03 23:53 26.06752 -80.14433 22 ft 17 kts 91°
2026-05-03 23:53 26.06752 -80.14289 23 ft 20 kts 89°
2026-05-03 23:53 26.06761 -80.14133 26 ft 19 kts 64°
2026-05-03 23:54 26.06838 -80.14127 23 ft 9 kts 314°
2026-05-03 23:54 26.06853 -80.14140 27 ft 0 kts 323°
2026-05-03 23:54 26.06860 -80.14146 24 ft 1 kts 325°
2026-05-03 23:54 26.06872 -80.14154 25 ft 1 kts 326°
2026-05-03 23:55 26.06881 -80.14160 26 ft 1 kts 327°
2026-05-03 23:55 26.06885 -80.14163 26 ft 0 kts 328°